Volver al catálogo

STARLINK-1199

ActivoComunicacionesVLEO
NORAD 45201·PAYLOAD·🇺🇸 United States

Lanzado Feb 17, 2020 desde Cape Canaveral Space Force Station

Loading…

Próximos Pases (próximas 24 horas)

TLE

ActualizadoSource: CelesTrak SupGP

Época: Sep 15, 2026, 01:18 UTC

1 45201C 20012Z   26258.05465278  .00015959  00000+0  35418-3 0  2587
2 45201  53.1515 216.9598 0001504  74.7440 299.1519 15.43127996    14

Sigue STARLINK-1199 en tiempo real con AllMySat

Download on the App Store